| time (UTC) | temp F | wind direction | speed MPH | gust MPH | rain 1hr in | rain 24hr in | rain mn in | humidity % | barometer mb |
| 20260510115011 | 54 | 360 | 6.0 | 17.0 | 0.00 | 0.00 | 0.00 | 68 | 1018.0 |
| 20260510114534 | 54 | 360 | 5.0 | 17.0 | 0.00 | 0.00 | 0.00 | 68 | 1017.9 |
| 20260510114010 | 54 | 360 | 7.0 | 13.0 | 0.00 | 0.00 | 0.00 | 68 | 1017.9 |
| 20260510113513 | 54 | 360 | 6.0 | 13.0 | 0.00 | 0.00 | 0.00 | 70 | 1018.0 |
| 20260510113038 | 54 | 360 | 5.0 | 13.0 | 0.00 | 0.00 | 0.00 | 71 | 1018.1 |
| 20260510112513 | 53 | 360 | 5.0 | 13.0 | 0.00 | 0.00 | 0.00 | 70 | 1018.1 |
| 20260510112011 | 53 | 360 | 4.0 | 9.0 | 0.00 | 0.00 | 0.00 | 72 | 1018.1 |
| 20260510111530 | 53 | 360 | 4.0 | 14.0 | 0.00 | 0.00 | 0.00 | 73 | 1018.2 |
| 20260510111011 | 53 | 360 | 5.0 | 14.0 | 0.00 | 0.00 | 0.00 | 74 | 1018.3 |
| 20260510110513 | 53 | 360 | 4.0 | 14.0 | 0.00 | 0.00 | 0.00 | 74 | 1018.3 |
| 20260510110029 | 53 | 360 | 4.0 | 14.0 | 0.00 | 0.00 | 0.00 | 73 | 1018.4 |
| 20260510105513 | 53 | 360 | 6.0 | 14.0 | 0.00 | 0.00 | 0.00 | 73 | 1018.5 |
| 20260510105015 | 53 | 360 | 4.0 | 14.0 | 0.00 | 0.00 | 0.00 | 73 | 1018.4 |
| 20260510104531 | 53 | 360 | 6.0 | 14.0 | 0.00 | 0.00 | 0.00 | 73 | 1018.5 |
| 20260510104013 | 53 | 360 | 5.0 | 13.0 | 0.00 | 0.00 | 0.00 | 72 | 1018.5 |
| 20260510103515 | 54 | 360 | 5.0 | 15.0 | 0.00 | 0.00 | 0.00 | 72 | 1018.4 |
| 20260510103029 | 54 | 360 | 5.0 | 15.0 | 0.00 | 0.00 | 0.00 | 71 | 1018.4 |
| 20260510102512 | 54 | 360 | 6.0 | 14.0 | 0.00 | 0.00 | 0.00 | 72 | 1018.5 |
| 20260510102012 | 54 | 360 | 6.0 | 14.0 | 0.00 | 0.00 | 0.00 | 73 | 1018.5 |
| 20260510101530 | 53 | 360 | 6.0 | 15.0 | 0.00 | 0.00 | 0.00 | 74 | 1018.4 |
| 20260510101013 | 53 | 360 | 7.0 | 16.0 | 0.00 | 0.00 | 0.00 | 74 | 1018.5 |
| 20260510100517 | 53 | 360 | 7.0 | 16.0 | 0.00 | 0.00 | 0.00 | 74 | 1018.5 |
| 20260510100030 | 53 | 360 | 7.0 | 16.0 | 0.00 | 0.00 | 0.00 | 74 | 1018.5 |
| 20260510095511 | 53 | 360 | 4.0 | 12.0 | 0.00 | 0.00 | 0.00 | 73 | 1018.6 |
| 20260510095012 | 54 | 360 | 6.0 | 14.0 | 0.00 | 0.00 | 0.00 | 73 | 1018.5 |
| 20260510094531 | 54 | 360 | 4.0 | 14.0 | 0.00 | 0.00 | 0.00 | 73 | 1018.4 |
| 20260510094012 | 53 | 360 | 5.0 | 17.0 | 0.00 | 0.00 | 0.00 | 74 | 1018.6 |
| 20260510093512 | 53 | 360 | 6.0 | 17.0 | 0.00 | 0.00 | 0.00 | 74 | 1018.6 |
| 20260510093032 | 52 | 360 | 4.0 | 12.0 | 0.00 | 0.00 | 0.00 | 76 | 1018.7 |
| 20260510092517 | 52 | 360 | 4.0 | 13.0 | 0.00 | 0.00 | 0.00 | 77 | 1018.8 |
| 20260510092015 | 52 | 360 | 5.0 | 14.0 | 0.00 | 0.00 | 0.00 | 77 | 1018.8 |
| 20260510091529 | 52 | 360 | 5.0 | 14.0 | 0.00 | 0.00 | 0.00 | 76 | 1018.9 |
| 20260510091014 | 52 | 360 | 4.0 | 11.0 | 0.00 | 0.00 | 0.00 | 76 | 1019.0 |
| 20260510090517 | 52 | 360 | 3.0 | 11.0 | 0.00 | 0.00 | 0.00 | 76 | 1019.1 |
| 20260510090032 | 52 | 360 | 3.0 | 11.0 | 0.00 | 0.00 | 0.00 | 76 | 1019.0 |
| 20260510085512 | 52 | 360 | 2.0 | 14.0 | 0.00 | 0.00 | 0.00 | 76 | 1018.9 |
| 20260510085014 | 52 | 360 | 3.0 | 14.0 | 0.00 | 0.00 | 0.00 | 76 | 1018.9 |
| 20260510084533 | 52 | 360 | 4.0 | 14.0 | 0.00 | 0.00 | 0.00 | 76 | 1018.9 |
| 20260510084016 | 52 | 360 | 4.0 | 13.0 | 0.00 | 0.00 | 0.00 | 77 | 1019.1 |
| 20260510083515 | 52 | 360 | 5.0 | 13.0 | 0.00 | 0.00 | 0.00 | 77 | 1019.0 |
| 20260510083029 | 52 | 360 | 7.0 | 13.0 | 0.00 | 0.00 | 0.00 | 76 | 1019.1 |
| 20260510082513 | 52 | 360 | 4.0 | 11.0 | 0.00 | 0.00 | 0.00 | 77 | 1019.1 |
| 20260510082015 | 52 | 360 | 4.0 | 13.0 | 0.00 | 0.00 | 0.00 | 78 | 1019.1 |
| 20260510081539 | 52 | 360 | 5.0 | 13.0 | 0.00 | 0.00 | 0.00 | 78 | 1019.1 |
| 20260510081014 | 51 | 360 | 6.0 | 13.0 | 0.00 | 0.00 | 0.00 | 78 | 1019.1 |
| 20260510080515 | 52 | 360 | 5.0 | 14.0 | 0.00 | 0.00 | 0.00 | 78 | 1019.0 |
| 20260510080029 | 52 | 360 | 6.0 | 14.0 | 0.00 | 0.00 | 0.00 | 78 | 1019.2 |
| 20260510075513 | 52 | 360 | 5.0 | 13.0 | 0.00 | 0.00 | 0.00 | 79 | 1019.1 |
| 20260510075013 | 52 | 360 | 6.0 | 13.0 | 0.00 | 0.00 | 0.00 | 79 | 1018.9 |
| 20260510074530 | 51 | 360 | 6.0 | 13.0 | 0.00 | 0.00 | 0.00 | 80 | 1018.9 |
| 20260510074016 | 51 | 360 | 6.0 | 13.0 | 0.00 | 0.00 | 0.00 | 80 | 1019.1 |
| 20260510073513 | 51 | 360 | 4.0 | 14.0 | 0.00 | 0.00 | 0.00 | 81 | 1019.1 |
| 20260510073034 | 51 | 360 | 4.0 | 14.0 | 0.00 | 0.00 | 0.00 | 81 | 1019.1 |
| 20260510072513 | 51 | 360 | 5.0 | 14.0 | 0.00 | 0.00 | 0.00 | 82 | 1019.2 |
| 20260510072016 | 51 | 360 | 5.0 | 12.0 | 0.00 | 0.00 | 0.00 | 82 | 1019.1 |
| 20260510071531 | 51 | 360 | 4.0 | 15.0 | 0.00 | 0.00 | 0.00 | 83 | 1019.1 |
| 20260510071013 | 50 | 360 | 6.0 | 15.0 | 0.00 | 0.00 | 0.00 | 83 | 1018.9 |
| 20260510070514 | 50 | 360 | 5.0 | 14.0 | 0.00 | 0.00 | 0.00 | 85 | 1018.9 |
| 20260510070031 | 50 | 360 | 6.0 | 14.0 | 0.00 | 0.00 | 0.00 | 85 | 1018.9 |
| 20260510065514 | 50 | 360 | 5.0 | 12.0 | 0.00 | 0.00 | 0.00 | 85 | 1018.8 |
| 20260510065014 | 50 | 360 | 5.0 | 13.0 | 0.00 | 0.00 | 0.00 | 86 | 1018.8 |
| 20260510064540 | 50 | 360 | 6.0 | 13.0 | 0.00 | 0.00 | 0.00 | 86 | 1018.8 |
| 20260510064013 | 50 | 360 | 6.0 | 15.0 | 0.00 | 0.00 | 0.00 | 86 | 1018.8 |
| 20260510063512 | 50 | 360 | 7.0 | 15.0 | 0.00 | 0.00 | 0.00 | 86 | 1018.8 |
| 20260510063038 | 49 | 360 | 7.0 | 15.0 | 0.00 | 0.00 | 0.00 | 87 | 1018.7 |
| 20260510062514 | 49 | 360 | 6.0 | 14.0 | 0.00 | 0.00 | 0.00 | 87 | 1018.8 |
| 20260510062013 | 49 | 360 | 5.0 | 15.0 | 0.00 | 0.00 | 0.00 | 88 | 1018.8 |
| 20260510061530 | 49 | 360 | 5.0 | 15.0 | 0.00 | 0.00 | 0.00 | 88 | 1018.7 |
| 20260510061011 | 49 | 360 | 6.0 | 13.0 | 0.00 | 0.00 | 0.00 | 88 | 1018.7 |
| 20260510060512 | 49 | 360 | 6.0 | 12.0 | 0.00 | 0.00 | 0.00 | 89 | 1018.7 |
| 20260510060030 | 49 | 360 | 7.0 | 12.0 | 0.00 | 0.00 | 0.00 | 89 | 1018.7 |
| 20260510055515 | 48 | 360 | 5.0 | 11.0 | 0.00 | 0.00 | 0.00 | 89 | 1018.6 |
| 20260510055014 | 48 | 360 | 4.0 | 11.0 | 0.00 | 0.00 | 0.00 | 89 | 1018.8 |
| 20260510054530 | 48 | 360 | 4.0 | 10.0 | 0.00 | 0.00 | 0.00 | 89 | 1018.7 |
| 20260510054014 | 48 | 360 | 4.0 | 10.0 | 0.00 | 0.00 | 0.00 | 90 | 1018.6 |
| 20260510053514 | 48 | 360 | 4.0 | 9.0 | 0.00 | 0.00 | 0.00 | 90 | 1018.7 |
| 20260510053030 | 48 | 360 | 3.0 | 10.0 | 0.00 | 0.00 | 0.00 | 90 | 1018.7 |
| 20260510052512 | 48 | 360 | 4.0 | 10.0 | 0.00 | 0.00 | 0.00 | 90 | 1018.6 |
| 20260510052012 | 48 | 360 | 5.0 | 9.0 | 0.00 | 0.00 | 0.00 | 90 | 1018.7 |
| 20260510051532 | 48 | 360 | 3.0 | 8.0 | 0.00 | 0.00 | 0.00 | 90 | 1018.8 |
| 20260510051013 | 48 | 360 | 4.0 | 8.0 | 0.00 | 0.00 | 0.00 | 90 | 1018.7 |
| 20260510050512 | 47 | 360 | 4.0 | 9.0 | 0.00 | 0.00 | 0.00 | 90 | 1018.8 |
| 20260510050030 | 47 | 360 | 3.0 | 9.0 | 0.00 | 0.00 | 0.00 | 90 | 1018.9 |
| 20260510045513 | 47 | 360 | 3.0 | 8.0 | 0.00 | 0.00 | 0.00 | 90 | 1018.8 |
| 20260510045015 | 47 | 360 | 2.0 | 8.0 | 0.00 | 0.00 | 0.00 | 90 | 1018.7 |
| 20260510044544 | 47 | 360 | 3.0 | 6.0 | 0.00 | 0.00 | 0.00 | 90 | 1018.7 |
| 20260510044015 | 47 | 360 | 3.0 | 8.0 | 0.00 | 0.00 | 0.00 | 90 | 1018.7 |
| 20260510043514 | 47 | 360 | 3.0 | 8.0 | 0.00 | 0.00 | 0.00 | 90 | 1018.6 |
| 20260510043035 | 47 | 360 | 4.0 | 8.0 | 0.00 | 0.00 | 0.00 | 90 | 1018.6 |
| 20260510042512 | 47 | 360 | 4.0 | 8.0 | 0.00 | 0.00 | 0.00 | 90 | 1018.6 |
| 20260510042013 | 47 | 360 | 2.0 | 8.0 | 0.00 | 0.00 | 0.00 | 89 | 1018.6 |
| 20260510041532 | 47 | 360 | 3.0 | 8.0 | 0.00 | 0.00 | 0.00 | 89 | 1018.5 |
| 20260510041013 | 47 | 360 | 2.0 | 8.0 | 0.00 | 0.00 | 0.00 | 89 | 1018.6 |
| 20260510040513 | 47 | 360 | 3.0 | 6.0 | 0.00 | 0.00 | 0.00 | 89 | 1018.6 |
| 20260510040031 | 47 | 360 | 2.0 | 6.0 | 0.00 | 0.00 | 0.00 | 89 | 1018.7 |
| 20260510035513 | 47 | 360 | 3.0 | 9.0 | 0.00 | 0.00 | 0.00 | 89 | 1018.6 |
| 20260510035018 | 47 | 360 | 4.0 | 9.0 | 0.00 | 0.00 | 0.00 | 89 | 1018.7 |
| 20260510034536 | 47 | 360 | 5.0 | 9.0 | 0.00 | 0.00 | 0.00 | 88 | 1018.8 |
| 20260510034014 | 47 | 360 | 4.0 | 9.0 | 0.00 | 0.00 | 0.00 | 88 | 1018.8 |
| 20260510033514 | 47 | 360 | 4.0 | 9.0 | 0.00 | 0.00 | 0.00 | 88 | 1018.9 |
| 20260510033031 | 48 | 360 | 3.0 | 9.0 | 0.00 | 0.00 | 0.00 | 88 | 1018.9 |
| 20260510032512 | 48 | 360 | 3.0 | 6.0 | 0.00 | 0.00 | 0.00 | 88 | 1019.0 |
| 20260510032015 | 48 | 360 | 3.0 | 6.0 | 0.00 | 0.00 | 0.00 | 88 | 1019.1 |
| 20260510031532 | 48 | 360 | 3.0 | 9.0 | 0.00 | 0.00 | 0.00 | 87 | 1019.1 |
| 20260510031013 | 48 | 360 | 4.0 | 10.0 | 0.00 | 0.00 | 0.00 | 87 | 1018.9 |
| 20260510030517 | 48 | 360 | 5.0 | 12.0 | 0.00 | 0.00 | 0.00 | 87 | 1018.9 |
| 20260510030030 | 49 | 360 | 6.0 | 12.0 | 0.00 | 0.00 | 0.00 | 87 | 1018.9 |
| 20260510025513 | 49 | 360 | 6.0 | 14.0 | 0.00 | 0.00 | 0.00 | 87 | 1018.9 |
| 20260510025014 | 49 | 360 | 6.0 | 15.0 | 0.00 | 0.00 | 0.00 | 87 | 1019.0 |
| 20260510024531 | 49 | 360 | 6.0 | 15.0 | 0.00 | 0.00 | 0.00 | 87 | 1018.9 |
| 20260510024014 | 49 | 360 | 6.0 | 12.0 | 0.00 | 0.00 | 0.00 | 87 | 1018.9 |
| 20260510023514 | 49 | 360 | 6.0 | 12.0 | 0.00 | 0.00 | 0.00 | 87 | 1019.0 |
| 20260510023032 | 49 | 360 | 5.0 | 12.0 | 0.00 | 0.00 | 0.00 | 87 | 1019.0 |
| 20260510022513 | 49 | 360 | 3.0 | 11.0 | 0.00 | 0.00 | 0.00 | 87 | 1019.0 |
| 20260510022012 | 49 | 360 | 5.0 | 11.0 | 0.00 | 0.00 | 0.00 | 87 | 1019.2 |
| 20260510021536 | 49 | 360 | 4.0 | 11.0 | 0.00 | 0.00 | 0.00 | 87 | 1019.2 |
| 20260510021015 | 49 | 360 | 4.0 | 10.0 | 0.00 | 0.00 | 0.00 | 87 | 1019.2 |
| 20260510020514 | 49 | 360 | 5.0 | 9.0 | 0.00 | 0.00 | 0.00 | 87 | 1019.2 |
| 20260510020030 | 49 | 360 | 4.0 | 10.0 | 0.00 | 0.00 | 0.00 | 87 | 1019.1 |
| 20260510015513 | 49 | 360 | 4.0 | 10.0 | 0.00 | 0.00 | 0.00 | 87 | 1019.2 |
| 20260510015015 | 49 | 360 | 5.0 | 11.0 | 0.00 | 0.00 | 0.00 | 87 | 1019.1 |
| 20260510014532 | 49 | 360 | 5.0 | 11.0 | 0.00 | 0.00 | 0.00 | 87 | 1019.1 |
| 20260510014013 | 49 | 360 | 4.0 | 11.0 | 0.00 | 0.00 | 0.00 | 87 | 1019.0 |
| 20260510013515 | 49 | 360 | 4.0 | 11.0 | 0.00 | 0.00 | 0.00 | 87 | 1019.1 |
| 20260510013029 | 49 | 360 | 5.0 | 13.0 | 0.00 | 0.00 | 0.00 | 87 | 1018.9 |
| 20260510012515 | 49 | 360 | 4.0 | 13.0 | 0.00 | 0.00 | 0.00 | 87 | 1019.0 |
| 20260510012014 | 49 | 360 | 5.0 | 13.0 | 0.00 | 0.00 | 0.00 | 88 | 1018.9 |
| 20260510011531 | 49 | 360 | 7.0 | 13.0 | 0.00 | 0.00 | 0.00 | 88 | 1019.0 |
| 20260510011013 | 49 | 360 | 5.0 | 11.0 | 0.00 | 0.00 | 0.00 | 88 | 1019.1 |
| 20260510010514 | 49 | 360 | 4.0 | 10.0 | 0.00 | 0.00 | 0.00 | 88 | 1019.0 |
| 20260510010031 | 49 | 360 | 4.0 | 9.0 | 0.00 | 0.00 | 0.00 | 87 | 1019.1 |
| 20260510005512 | 49 | 360 | 4.0 | 10.0 | 0.00 | 0.00 | 0.00 | 87 | 1019.2 |
| 20260510005012 | 49 | 360 | 4.0 | 11.0 | 0.00 | 0.00 | 0.00 | 87 | 1019.3 |
| 20260510004531 | 49 | 360 | 4.0 | 11.0 | 0.00 | 0.00 | 0.00 | 87 | 1019.3 |
| 20260510004014 | 48 | 360 | 4.0 | 11.0 | 0.00 | 0.00 | 0.00 | 87 | 1019.2 |
| 20260510003514 | 48 | 360 | 3.0 | 9.0 | 0.00 | 0.00 | 0.00 | 86 | 1019.3 |
| 20260510003031 | 47 | 360 | 4.0 | 9.0 | 0.00 | 0.00 | 0.00 | 85 | 1019.2 |
| 20260510002511 | 47 | 360 | 3.0 | 8.0 | 0.00 | 0.00 | 0.00 | 85 | 1019.3 |
| 20260510002013 | 47 | 360 | 3.0 | 6.0 | 0.00 | 0.00 | 0.00 | 84 | 1019.4 |
| 20260510001532 | 47 | 360 | 2.0 | 5.0 | 0.00 | 0.00 | 0.00 | 83 | 1019.5 |
| 20260510001015 | 47 | 360 | 2.0 | 5.0 | 0.00 | 0.00 | 0.00 | 82 | 1019.5 |
| 20260510000514 | 47 | 360 | 2.0 | 5.0 | 0.00 | 0.00 | 0.00 | 82 | 1019.4 |
| 20260510000029 | 47 | 360 | 3.0 | 5.0 | 0.00 | 0.00 | 0.00 | 81 | 1019.4 |
| 20260509235512 | 47 | 360 | 2.0 | 6.0 | 0.00 | 0.00 | 0.00 | 81 | 1019.5 |
| 20260509235012 | 48 | 360 | 2.0 | 8.0 | 0.00 | 0.00 | 0.00 | 82 | 1019.5 |
| 20260509234535 | 48 | 360 | 2.0 | 8.0 | 0.00 | 0.00 | 0.00 | 82 | 1019.5 |
| 20260509234014 | 48 | 360 | 2.0 | 5.0 | 0.00 | 0.00 | 0.00 | 83 | 1019.5 |
| 20260509233512 | 48 | 360 | 2.0 | 5.0 | 0.00 | 0.00 | 0.00 | 83 | 1019.5 |
| 20260509233030 | 48 | 360 | 3.0 | 5.0 | 0.00 | 0.00 | 0.00 | 82 | 1019.5 |
| 20260509232514 | 47 | 360 | 3.0 | 4.0 | 0.00 | 0.00 | 0.00 | 81 | 1019.4 |
| 20260509232014 | 47 | 360 | 2.0 | 5.0 | 0.00 | 0.00 | 0.00 | 81 | 1019.4 |
| 20260509231531 | 47 | 360 | 2.0 | 5.0 | 0.00 | 0.00 | 0.00 | 80 | 1019.6 |
| 20260509231011 | 47 | 360 | 2.0 | 4.0 | 0.00 | 0.00 | 0.00 | 79 | 1019.6 |
| 20260509230514 | 47 | 360 | 2.0 | 4.0 | 0.00 | 0.00 | 0.00 | 78 | 1019.6 |
| 20260509230032 | 47 | 360 | 2.0 | 4.0 | 0.00 | 0.00 | 0.00 | 77 | 1019.5 |
| 20260509225514 | 47 | 360 | 2.0 | 4.0 | 0.00 | 0.00 | 0.00 | 76 | 1019.6 |
| 20260509225012 | 48 | 0 | 0.0 | 0.0 | 0.00 | 0.00 | 0.00 | 75 | 1019.6 |
| 20260509224532 | 48 | 0 | 0.0 | 2.0 | 0.00 | 0.00 | 0.00 | 75 | 1019.7 |
| 20260509224014 | 49 | 0 | 0.0 | 2.0 | 0.00 | 0.00 | 0.00 | 75 | 1019.7 |
| 20260509223511 | 49 | 360 | 0.0 | 3.0 | 0.00 | 0.00 | 0.00 | 74 | 1019.7 |
| 20260509223031 | 49 | 0 | 0.0 | 4.0 | 0.00 | 0.00 | 0.00 | 74 | 1019.6 |
| 20260509222514 | 49 | 360 | 1.0 | 4.0 | 0.00 | 0.00 | 0.00 | 74 | 1019.6 |
| 20260509222014 | 50 | 360 | 1.0 | 4.0 | 0.00 | 0.00 | 0.00 | 73 | 1019.4 |
| 20260509221532 | 50 | 360 | 1.0 | 4.0 | 0.00 | 0.00 | 0.00 | 73 | 1019.4 |
| 20260509221014 | 50 | 360 | 1.0 | 5.0 | 0.00 | 0.00 | 0.00 | 73 | 1019.2 |
| 20260509220511 | 50 | 360 | 2.0 | 5.0 | 0.00 | 0.00 | 0.00 | 73 | 1019.4 |
| 20260509220053 | 50 | 360 | 3.0 | 4.0 | 0.00 | 0.00 | 0.00 | 73 | 1019.3 |
| 20260509215514 | 50 | 360 | 2.0 | 4.0 | 0.00 | 0.00 | 0.00 | 72 | 1019.1 |
| 20260509215014 | 50 | 360 | 2.0 | 4.0 | 0.00 | 0.00 | 0.00 | 72 | 1019.0 |
| 20260509214532 | 50 | 360 | 2.0 | 4.0 | 0.00 | 0.00 | 0.00 | 71 | 1019.1 |
| 20260509214011 | 50 | 360 | 2.0 | 4.0 | 0.00 | 0.00 | 0.00 | 70 | 1018.9 |
| 20260509213511 | 50 | 360 | 2.0 | 4.0 | 0.00 | 0.00 | 0.00 | 69 | 1018.9 |
| 20260509213030 | 50 | 360 | 2.0 | 3.0 | 0.00 | 0.00 | 0.00 | 68 | 1019.0 |
| 20260509212512 | 51 | 360 | 1.0 | 3.0 | 0.00 | 0.00 | 0.00 | 68 | 1019.1 |
| 20260509212011 | 51 | 360 | 2.0 | 3.0 | 0.00 | 0.00 | 0.00 | 67 | 1018.9 |
| 20260509211530 | 51 | 360 | 1.0 | 3.0 | 0.00 | 0.00 | 0.00 | 66 | 1019.0 |
| 20260509211012 | 51 | 360 | 1.0 | 3.0 | 0.00 | 0.00 | 0.00 | 65 | 1019.0 |
| 20260509210513 | 52 | 360 | 1.0 | 3.0 | 0.00 | 0.00 | 0.00 | 65 | 1018.9 |
| 20260509210032 | 52 | 360 | 1.0 | 3.0 | 0.00 | 0.00 | 0.00 | 64 | 1018.9 |
| 20260509205511 | 52 | 360 | 1.0 | 3.0 | 0.00 | 0.00 | 0.00 | 63 | 1018.8 |
| 20260509205014 | 52 | 360 | 1.0 | 3.0 | 0.00 | 0.00 | 0.00 | 63 | 1018.8 |
| 20260509204528 | 53 | 360 | 1.0 | 4.0 | 0.00 | 0.00 | 0.00 | 62 | 1018.8 |
| 20260509204014 | 53 | 360 | 2.0 | 4.0 | 0.00 | 0.00 | 0.00 | 62 | 1018.7 |
| 20260509203513 | 53 | 360 | 2.0 | 4.0 | 0.00 | 0.00 | 0.00 | 61 | 1018.6 |
| 20260509203030 | 54 | 360 | 2.0 | 4.0 | 0.00 | 0.00 | 0.00 | 60 | 1018.6 |
| 20260509202512 | 54 | 360 | 2.0 | 5.0 | 0.00 | 0.00 | 0.00 | 59 | 1018.6 |
| 20260509202019 | 54 | 360 | 2.0 | 6.0 | 0.00 | 0.00 | 0.00 | 59 | 1018.5 |
| 20260509201529 | 54 | 360 | 2.0 | 6.0 | 0.00 | 0.00 | 0.00 | 58 | 1018.4 |
| 20260509201013 | 54 | 360 | 2.0 | 5.0 | 0.00 | 0.00 | 0.00 | 58 | 1018.4 |
| 20260509200512 | 55 | 360 | 2.0 | 5.0 | 0.00 | 0.00 | 0.00 | 57 | 1018.5 |
| 20260509200032 | 55 | 360 | 2.0 | 4.0 | 0.00 | 0.00 | 0.00 | 56 | 1018.4 |
| 20260509195516 | 56 | 360 | 1.0 | 3.0 | 0.00 | 0.00 | 0.00 | 55 | 1018.5 |
| 20260509195015 | 56 | 360 | 1.0 | 3.0 | 0.00 | 0.00 | 0.00 | 54 | 1018.4 |
| 20260509194530 | 57 | 360 | 1.0 | 4.0 | 0.00 | 0.00 | 0.00 | 53 | 1018.4 |
| 20260509194013 | 57 | 360 | 1.0 | 4.0 | 0.00 | 0.00 | 0.00 | 52 | 1018.5 |
| 20260509193513 | 58 | 360 | 1.0 | 5.0 | 0.00 | 0.00 | 0.00 | 51 | 1018.5 |
| 20260509193032 | 58 | 360 | 1.0 | 5.0 | 0.00 | 0.00 | 0.00 | 50 | 1018.4 |
| 20260509192513 | 59 | 360 | 1.0 | 6.0 | 0.00 | 0.00 | 0.00 | 50 | 1018.3 |
| 20260509192010 | 59 | 360 | 2.0 | 8.0 | 0.00 | 0.00 | 0.00 | 49 | 1018.2 |
| 20260509191531 | 59 | 360 | 1.0 | 8.0 | 0.00 | 0.00 | 0.00 | 48 | 1018.3 |
| 20260509191012 | 60 | 360 | 2.0 | 8.0 | 0.00 | 0.00 | 0.00 | 48 | 1018.1 |
| 20260509190511 | 60 | 360 | 2.0 | 9.0 | 0.00 | 0.00 | 0.00 | 47 | 1018.0 |
| 20260509190031 | 60 | 360 | 1.0 | 9.0 | 0.00 | 0.00 | 0.00 | 47 | 1018.0 |
| 20260509185512 | 61 | 77 | 3.0 | 9.0 | 0.00 | 0.00 | 0.00 | 46 | 1018.0 |
| 20260509185012 | 61 | 86 | 3.0 | 9.0 | 0.00 | 0.00 | 0.00 | 46 | 1018.0 |
| 20260509184529 | 62 | 5 | 3.0 | 9.0 | 0.00 | 0.00 | 0.00 | 45 | 1018.0 |
| 20260509184011 | 62 | 21 | 3.0 | 13.0 | 0.00 | 0.00 | 0.00 | 44 | 1018.0 |
| 20260509183512 | 63 | 89 | 3.0 | 13.0 | 0.00 | 0.00 | 0.00 | 44 | 1017.9 |
| 20260509183032 | 63 | 61 | 5.0 | 13.0 | 0.00 | 0.00 | 0.00 | 43 | 1017.8 |
| 20260509182512 | 64 | 65 | 1.0 | 11.0 | 0.00 | 0.00 | 0.00 | 44 | 1017.8 |
| 20260509182013 | 64 | 51 | 3.0 | 12.0 | 0.00 | 0.00 | 0.00 | 43 | 1017.8 |
| 20260509181534 | 64 | 29 | 4.0 | 12.0 | 0.00 | 0.00 | 0.00 | 43 | 1017.6 |
| 20260509181019 | 64 | 40 | 5.0 | 11.0 | 0.00 | 0.00 | 0.00 | 42 | 1017.6 |
| 20260509180511 | 64 | 79 | 4.0 | 11.0 | 0.00 | 0.00 | 0.00 | 43 | 1017.7 |
| 20260509180029 | 64 | 75 | 3.0 | 10.0 | 0.00 | 0.00 | 0.00 | 44 | 1017.6 |
| 20260509175512 | 64 | 78 | 3.0 | 10.0 | 0.00 | 0.00 | 0.00 | 44 | 1017.6 |
| 20260509175014 | 64 | 86 | 3.0 | 10.0 | 0.00 | 0.00 | 0.00 | 44 | 1017.5 |
| 20260509174531 | 64 | 94 | 4.0 | 10.0 | 0.00 | 0.00 | 0.00 | 43 | 1017.6 |
| 20260509174015 | 64 | 51 | 2.0 | 10.0 | 0.00 | 0.00 | 0.00 | 43 | 1017.5 |
| 20260509173511 | 64 | 61 | 3.0 | 11.0 | 0.00 | 0.00 | 0.00 | 42 | 1017.5 |
| 20260509173031 | 65 | 77 | 3.0 | 11.0 | 0.00 | 0.00 | 0.00 | 41 | 1017.7 |
| 20260509172516 | 65 | 71 | 2.0 | 9.0 | 0.00 | 0.00 | 0.00 | 42 | 1017.6 |
| 20260509172014 | 65 | 86 | 4.0 | 9.0 | 0.00 | 0.00 | 0.00 | 41 | 1017.6 |
| 20260509171538 | 66 | 150 | 3.0 | 9.0 | 0.00 | 0.00 | 0.00 | 40 | 1017.8 |
| 20260509171011 | 66 | 113 | 2.0 | 9.0 | 0.00 | 0.00 | 0.00 | 40 | 1017.8 |
| 20260509170512 | 66 | 122 | 3.0 | 9.0 | 0.00 | 0.00 | 0.00 | 40 | 1017.8 |
| 20260509170032 | 66 | 136 | 2.0 | 10.0 | 0.00 | 0.00 | 0.00 | 40 | 1017.7 |
| 20260509165513 | 66 | 112 | 5.0 | 10.0 | 0.00 | 0.00 | 0.00 | 39 | 1017.8 |
| 20260509165013 | 66 | 126 | 2.0 | 9.0 | 0.00 | 0.00 | 0.00 | 40 | 1017.7 |
| 20260509164531 | 66 | 109 | 4.0 | 11.0 | 0.00 | 0.00 | 0.00 | 39 | 1017.8 |
| 20260509164014 | 66 | 128 | 3.0 | 11.0 | 0.00 | 0.00 | 0.00 | 39 | 1017.8 |
| 20260509163515 | 66 | 123 | 4.0 | 10.0 | 0.00 | 0.00 | 0.00 | 39 | 1017.7 |
| 20260509163030 | 66 | 118 | 3.0 | 8.0 | 0.00 | 0.00 | 0.00 | 39 | 1017.8 |
| 20260509162511 | 66 | 127 | 4.0 | 11.0 | 0.00 | 0.00 | 0.00 | 39 | 1017.8 |
| 20260509162014 | 66 | 118 | 3.0 | 11.0 | 0.00 | 0.00 | 0.00 | 38 | 1017.8 |
| 20260509161530 | 66 | 103 | 6.0 | 11.0 | 0.00 | 0.00 | 0.00 | 38 | 1017.8 |
| 20260509161014 | 67 | 108 | 2.0 | 12.0 | 0.00 | 0.00 | 0.00 | 39 | 1017.9 |
| 20260509160514 | 67 | 131 | 5.0 | 12.0 | 0.00 | 0.00 | 0.00 | 38 | 1017.9 |
| 20260509160030 | 67 | 84 | 3.0 | 11.0 | 0.00 | 0.00 | 0.00 | 38 | 1017.8 |
| 20260509155513 | 68 | 105 | 3.0 | 11.0 | 0.00 | 0.00 | 0.00 | 38 | 1017.8 |
| 20260509155014 | 68 | 145 | 4.0 | 13.0 | 0.00 | 0.00 | 0.00 | 38 | 1017.8 |
| 20260509154529 | 68 | 98 | 4.0 | 13.0 | 0.00 | 0.00 | 0.00 | 37 | 1017.8 |
| 20260509154013 | 68 | 103 | 4.0 | 11.0 | 0.00 | 0.00 | 0.00 | 38 | 1017.7 |
| 20260509153515 | 69 | 96 | 5.0 | 12.0 | 0.00 | 0.00 | 0.00 | 37 | 1017.7 |
| 20260509153032 | 69 | 67 | 4.0 | 12.0 | 0.00 | 0.00 | 0.00 | 36 | 1017.7 |
| 20260509152513 | 69 | 115 | 5.0 | 12.0 | 0.00 | 0.00 | 0.00 | 37 | 1017.6 |
| 20260509152013 | 69 | 67 | 4.0 | 12.0 | 0.00 | 0.00 | 0.00 | 37 | 1017.5 |
| 20260509151531 | 69 | 92 | 6.0 | 12.0 | 0.00 | 0.00 | 0.00 | 36 | 1017.5 |
| 20260509151012 | 70 | 94 | 5.0 | 11.0 | 0.00 | 0.00 | 0.00 | 36 | 1017.4 |
| 20260509150513 | 70 | 94 | 4.0 | 11.0 | 0.00 | 0.00 | 0.00 | 36 | 1017.3 |
| 20260509150035 | 70 | 131 | 5.0 | 10.0 | 0.00 | 0.00 | 0.00 | 37 | 1017.2 |
| 20260509145511 | 70 | 92 | 2.0 | 9.0 | 0.00 | 0.00 | 0.00 | 35 | 1017.1 |
| 20260509145013 | 69 | 44 | 3.0 | 12.0 | 0.00 | 0.00 | 0.00 | 36 | 1017.0 |
| 20260509144534 | 70 | 25 | 2.0 | 12.0 | 0.00 | 0.00 | 0.00 | 34 | 1017.1 |
| 20260509144016 | 70 | 17 | 4.0 | 9.0 | 0.00 | 0.00 | 0.00 | 36 | 1017.0 |
| 20260509143514 | 69 | 15 | 2.0 | 13.0 | 0.00 | 0.00 | 0.00 | 34 | 1017.1 |
| 20260509143031 | 70 | 64 | 5.0 | 13.0 | 0.00 | 0.00 | 0.00 | 33 | 1017.2 |
| 20260509142512 | 71 | 62 | 6.0 | 13.0 | 0.00 | 0.00 | 0.00 | 35 | 1017.3 |
| 20260509142011 | 71 | 56 | 3.0 | 9.0 | 0.00 | 0.00 | 0.00 | 34 | 1017.1 |
| 20260509141533 | 70 | 82 | 3.0 | 11.0 | 0.00 | 0.00 | 0.00 | 36 | 1017.3 |
| 20260509141017 | 69 | 103 | 4.0 | 11.0 | 0.00 | 0.00 | 0.00 | 37 | 1017.4 |
| 20260509140511 | 69 | 100 | 5.0 | 11.0 | 0.00 | 0.00 | 0.00 | 36 | 1017.4 |
| 20260509140029 | 69 | 342 | 3.0 | 14.0 | 0.00 | 0.00 | 0.00 | 37 | 1017.3 |
| 20260509135516 | 69 | 45 | 4.0 | 14.0 | 0.00 | 0.00 | 0.00 | 37 | 1017.4 |
| 20260509135014 | 70 | 76 | 5.0 | 10.0 | 0.00 | 0.00 | 0.00 | 37 | 1017.6 |
| 20260509134528 | 69 | 50 | 2.0 | 10.0 | 0.00 | 0.00 | 0.00 | 37 | 1017.6 |
| 20260509134015 | 70 | 55 | 3.0 | 12.0 | 0.00 | 0.00 | 0.00 | 37 | 1017.6 |
| 20260509133511 | 70 | 54 | 3.0 | 12.0 | 0.00 | 0.00 | 0.00 | 38 | 1017.6 |
| 20260509133030 | 70 | 46 | 3.0 | 13.0 | 0.00 | 0.00 | 0.00 | 37 | 1017.7 |
| 20260509132518 | 70 | 66 | 4.0 | 13.0 | 0.00 | 0.00 | 0.00 | 38 | 1017.6 |
| 20260509132010 | 70 | 355 | 4.0 | 13.0 | 0.00 | 0.00 | 0.00 | 37 | 1017.6 |
| 20260509131544 | 69 | 67 | 3.0 | 9.0 | 0.00 | 0.00 | 0.00 | 38 | 1017.7 |
| 20260509131012 | 69 | 355 | 2.0 | 8.0 | 0.00 | 0.00 | 0.00 | 38 | 1017.7 |
| 20260509130512 | 69 | 43 | 1.0 | 8.0 | 0.00 | 0.00 | 0.00 | 38 | 1017.9 |
| 20260509130034 | 69 | 39 | 3.0 | 10.0 | 0.00 | 0.00 | 0.00 | 37 | 1017.9 |
| 20260509125513 | 69 | 48 | 3.0 | 10.0 | 0.00 | 0.00 | 0.00 | 38 | 1017.9 |
| 20260509125011 | 69 | 27 | 4.0 | 10.0 | 0.00 | 0.00 | 0.00 | 39 | 1017.9 |
| 20260509124529 | 69 | 5 | 3.0 | 7.0 | 0.00 | 0.00 | 0.00 | 39 | 1017.9 |
| 20260509124012 | 69 | 61 | 2.0 | 6.0 | 0.00 | 0.00 | 0.00 | 37 | 1017.9 |
| 20260509123511 | 69 | 63 | 2.0 | 9.0 | 0.00 | 0.00 | 0.00 | 37 | 1017.9 |
| 20260509123031 | 68 | 60 | 2.0 | 10.0 | 0.00 | 0.00 | 0.00 | 38 | 1018.1 |
| 20260509122513 | 68 | 36 | 3.0 | 10.0 | 0.00 | 0.00 | 0.00 | 38 | 1018.2 |
| 20260509122013 | 68 | 15 | 2.0 | 7.0 | 0.00 | 0.00 | 0.00 | 38 | 1018.2 |
| 20260509121530 | 68 | 360 | 2.0 | 11.0 | 0.00 | 0.00 | 0.00 | 37 | 1018.1 |
| 20260509121011 | 68 | 91 | 5.0 | 11.0 | 0.00 | 0.00 | 0.00 | 39 | 1018.2 |
| 20260509120514 | 68 | 67 | 2.0 | 8.0 | 0.00 | 0.00 | 0.00 | 38 | 1018.2 |
| 20260509120029 | 68 | 78 | 3.0 | 10.0 | 0.00 | 0.00 | 0.00 | 38 | 1018.3 |
| 20260509115513 | 68 | 77 | 4.0 | 10.0 | 0.00 | 0.00 | 0.00 | 39 | 1018.4 |